Charlotte, NC

9:44 PM EST on January 21, 2017 (GMT -0500)
Charlotte-Douglas International

Weather History for KCLT - March, 2012

Change the Weather History Date:

Friday, March 30, 2012

  Actual Average Record
Temperature  
Mean Temperature 66 °F 55 °F  
Max Temperature 78 °F 67 °F 86 °F (1998)
Min Temperature 54 °F 43 °F 24 °F (1964)
Degree Days  
Heating Degree Days 0 10  
Month to date heating degree days 168 424  
Since 1 July heating degree days 2430 3123  
Cooling Degree Days 1 0  
Month to date cooling degree days 56 0  
Year to date cooling degree days 56 0  
Growing Degree Days 16 (Base 50)    
Moisture  
Dew Point 50 °F    
Average Humidity 65    
Maximum Humidity 93    
Minimum Humidity 36    
Precipitation  
Precipitation 0.18 in 0.13 in 2.36 in (1924)
Month to date precipitation 3.61 3.89  
Year to date precipitation 7.19 10.62  
Snow  
Snow 0.00 in 0.00 in 3.50 in (1915)
Month to date snowfall 0.0 0.6  
Since 1 July snowfall T 4.3  
Snow Depth 0.00 in    
Sea Level Pressure  
Sea Level Pressure 29.93 in    
Wind  
Wind Speed 5 mph (ENE)    
Max Wind Speed 22 mph    
Max Gust Speed 32 mph    
Visibility 9 miles    
Events Rain    
T = Trace of Precipitation, MM = Missing Value Source: NWS Daily Summary

Daily Weather History Graph

Daily Weather History Graph

Search for Another Location

Airport or City:

Trip Planner

Search our weather history database for the weather conditions in past years. The results will help you decide how hot, cold, wet, or windy it might be!

Date:

Astronomy

Mar. 30, 2012 Rise Set
Actual Time 7:12 AM EDT 7:43 PM EDT
Civil Twilight 6:47 AM EDT 8:09 PM EDT
Nautical Twilight 6:17 AM EDT 8:39 PM EDT
Astronomical Twilight 5:46 AM EDT 9:10 PM EDT
Moon 12:26 PM EDT (3/30) 2:09 AM EDT (3/30)
Length of Visible Light 13h 22m
Length of Day
12h 31m
Waxing Crescent, 49% of the Moon is Illuminated
Mar 30
Waxing Crescent
Mar 30
First Quarter
Apr 6
Full
Apr 13
Last Quarter
Apr 21
New

Hourly Weather History & Observations

Time (EDT) Temp. Dew Point Humidity Pressure Visibility Wind Dir Wind Speed Gust Speed Precip Events Conditions
12:52 AM 59.0 °F 50.0 °F 72% 29.93 in 10.0 mi Calm Calm - N/A   Scattered Clouds
1:52 AM 55.0 °F 48.9 °F 80% 29.94 in 10.0 mi Calm Calm - N/A   Mostly Cloudy
2:52 AM 59.0 °F 48.9 °F 69% 29.92 in 10.0 mi ENE 3.5 mph - N/A   Mostly Cloudy
3:52 AM 61.0 °F 39.0 °F 44% 29.91 in 10.0 mi ENE 3.5 mph - N/A   Mostly Cloudy
4:52 AM 63.0 °F 37.0 °F 38% 29.91 in 10.0 mi ENE 8.1 mph - N/A   Clear
5:52 AM 62.1 °F 36.0 °F 38% 29.92 in 10.0 mi ENE 10.4 mph - N/A   Scattered Clouds
6:52 AM 60.1 °F 36.0 °F 41% 29.95 in 10.0 mi NE 6.9 mph - N/A   Scattered Clouds
7:52 AM 55.4 °F 39.2 °F 54% 30.01 in 10.0 mi North 5.8 mph - N/A   Scattered Clouds
8:52 AM 57.9 °F 46.0 °F 65% 30.03 in 10.0 mi ENE 9.2 mph - N/A   Scattered Clouds
9:52 AM 61.0 °F 48.9 °F 64% 30.03 in 10.0 mi Variable 4.6 mph - N/A   Scattered Clouds
10:52 AM 64.0 °F 50.0 °F 60% 30.01 in 10.0 mi NE 5.8 mph - N/A   Clear
11:52 AM 68.0 °F 52.0 °F 56% 29.99 in 10.0 mi Variable 3.5 mph - N/A   Clear
12:52 PM 70.0 °F 52.0 °F 53% 29.97 in 10.0 mi Calm Calm - N/A   Partly Cloudy
1:52 PM 71.6 °F 51.8 °F 50% 29.96 in 10.0 mi South 3.5 mph - N/A   Clear
2:52 PM 75.0 °F 52.0 °F 44% 29.91 in 10.0 mi Calm Calm - N/A   Scattered Clouds
3:52 PM 75.9 °F 54.0 °F 46% 29.88 in 10.0 mi ESE 4.6 mph - N/A   Clear
4:52 PM 77.0 °F 55.0 °F 47% 29.86 in 10.0 mi SSE 4.6 mph - N/A   Mostly Cloudy
5:52 PM 75.9 °F 55.0 °F 48% 29.86 in 10.0 mi South 6.9 mph - N/A   Overcast
6:52 PM 75.0 °F 55.0 °F 50% 29.87 in 10.0 mi South 3.5 mph - N/A   Overcast
7:52 PM 68.0 °F 57.0 °F 68% 29.92 in 7.0 mi West 17.3 mph 32.2 mph 0.00 in Rain Light Rain
8:52 PM 63.0 °F 60.1 °F 90% 29.90 in 9.0 mi NNW 4.6 mph - 0.06 in Rain Light Rain
9:52 PM 63.0 °F 61.0 °F 93% 29.94 in 3.0 mi WNW 6.9 mph - 0.07 in Rain Rain
10:52 PM 62.1 °F 60.1 °F 93% 29.90 in 7.0 mi North 3.5 mph - 0.05 in   Mostly Cloudy
11:52 PM 62.1 °F 60.1 °F 93% 29.88 in 8.0 mi South 3.5 mph - 0.00 in   Overcast